Weather History for KROW - March, 2013

Change the Weather History Date:

Saturday, March 2, 2013

  Actual Average Record
Temperature  
Mean Temperature 47 °F 49 °F  
Max Temperature 65 °F 64 °F 90 °F (1967)
Min Temperature 28 °F 34 °F 4 °F (1922)
Degree Days  
Heating Degree Days 18 16  
Month to date heating degree days 37 32  
Since 1 July heating degree days 2491 2739  
Cooling Degree Days 0 0  
Month to date cooling degree days 0 0  
Year to date cooling degree days 0 0  
Moisture  
Dew Point 13 °F    
Average Humidity 29    
Maximum Humidity 43    
Minimum Humidity 15    
Precipitation  
Precipitation 0.00 in 0.02 in 0.39 in (2001)
Month to date precipitation 0.00 0.03  
Year to date precipitation 0.44 0.83  
Sea Level Pressure  
Sea Level Pressure 30.25 in    
Wind  
Wind Speed 6 mph (South)    
Max Wind Speed 14 mph    
Max Gust Speed 20 mph    
Visibility 10 miles    
Events      
T = Trace of Precipitation, MM = Missing Value Source: NWS Daily Summary

Daily Weather History Graph

Daily Weather History Graph

Search for Another Location

Airport or City:

Trip Planner

Search our weather history database for the weather conditions in past years. The results will help you decide how hot, cold, wet, or windy it might be!

Date:

Astronomy

Mar. 02, 2013 Rise Set
Actual Time 6:24 AM MST 5:56 PM MST
Civil Twilight 5:59 AM MST 6:20 PM MST
Nautical Twilight 5:31 AM MST 6:49 PM MST
Astronomical Twilight 5:02 AM MST 7:18 PM MST
Moon 11:18 PM MST (3/2) 9:12 AM MST (3/2)
Length of Visible Light 12h 21m
Length of Day
11h 31m
Waning Gibbous, 73% of the Moon is Illuminated
Mar 2
Waning Gibbous
Mar 4
Last Quarter
Mar 11
New
Mar 19
First Quarter
Mar 27
Full

Hourly Weather History & Observations

Time (MST) Temp. Windchill Dew Point Humidity Pressure Visibility Wind Dir Wind Speed Gust Speed Precip Events Conditions
12:51 AM 37.0 °F 32.4 °F 9.0 °F 31% 30.29 in 10.0 mi NE 5.8 mph - N/A   Clear
1:51 AM 39.0 °F 36.8 °F 9.0 °F 29% 30.29 in 10.0 mi North 3.5 mph - N/A   Clear
2:51 AM 34.0 °F 29.8 °F 10.0 °F 37% 30.30 in 10.0 mi WNW 4.6 mph - N/A   Clear
3:51 AM 33.1 °F 27.7 °F 8.1 °F 35% 30.32 in 10.0 mi West 5.8 mph - N/A   Clear
4:51 AM 30.9 °F 27.5 °F 9.0 °F 40% 30.32 in 10.0 mi WNW 3.5 mph - N/A   Clear
5:51 AM 28.9 °F 25.2 °F 8.1 °F 41% 30.35 in 10.0 mi NNW 3.5 mph - N/A   Clear
6:51 AM 30.9 °F - 10.0 °F 42% 30.39 in 10.0 mi Calm Calm - N/A   Clear
7:51 AM 37.0 °F 33.3 °F 14.0 °F 39% 30.40 in 10.0 mi North 4.6 mph - N/A   Clear
8:51 AM 43.0 °F 41.3 °F 16.0 °F 34% 30.40 in 10.0 mi North 3.5 mph - N/A   Clear
9:51 AM 48.9 °F - 18.0 °F 29% 30.38 in 10.0 mi NE 5.8 mph - N/A   Clear
10:51 AM 53.1 °F - 15.1 °F 22% 30.35 in 10.0 mi Variable 3.5 mph - N/A   Clear
11:51 AM 57.0 °F - 14.0 °F 18% 30.31 in 10.0 mi Variable 6.9 mph - N/A   Clear
12:51 PM 60.1 °F - 14.0 °F 16% 30.26 in 10.0 mi South 6.9 mph - N/A   Clear
1:51 PM 63.0 °F - 15.1 °F 16% 30.21 in 10.0 mi SSE 13.8 mph 19.6 mph N/A   Clear
2:51 PM 63.0 °F - 16.0 °F 16% 30.19 in 10.0 mi South 4.6 mph - N/A   Clear
3:51 PM 64.9 °F - 16.0 °F 15% 30.18 in 10.0 mi SE 6.9 mph - N/A   Clear
4:51 PM 64.0 °F - 16.0 °F 16% 30.17 in 10.0 mi SSE 9.2 mph - N/A   Clear
5:51 PM 61.0 °F - 15.1 °F 17% 30.16 in 10.0 mi SSE 8.1 mph - N/A   Clear
6:51 PM 54.0 °F - 14.0 °F 21% 30.17 in 10.0 mi South 6.9 mph - N/A   Clear
7:51 PM 50.0 °F - 12.9 °F 23% 30.15 in 10.0 mi South 10.4 mph - N/A   Clear
8:51 PM 51.1 °F - 12.9 °F 22% 30.14 in 10.0 mi SSW 5.8 mph - N/A   Clear
9:51 PM 41.0 °F 37.1 °F 10.9 °F 29% 30.14 in 10.0 mi SSW 5.8 mph - N/A   Clear
10:51 PM 44.1 °F 42.5 °F 12.0 °F 27% 30.10 in 10.0 mi South 3.5 mph - N/A   Clear
11:51 PM 39.0 °F 36.8 °F 10.9 °F 32% 30.08 in 10.0 mi ESE 3.5 mph - N/A   Clear